GEFSNE_prec_meanprecacc_048.txt.gz
Total_Precipitation_Accumulation
0.08 0.10 0.12 0.13 0.15 0.17 0.20 0.24 0.27 0.21 0.11 0.06 0.05 0.04 0.05 0.06 0.06 0.08 0.08 0.07 0.10 0.12 0.14 0.16 0.19 0.23 0.27 0.32 0.40 0.49 0.58 0.67 0.78 0.88 0.99 1.07 1.13 1.15
0.05 0.07 0.09 0.10 0.11 0.14 0.16 0.19 0.23 0.26 0.17 0.06 0.05 0.05 0.07 0.07 0.07 0.10 0.09 0.11 0.13 0.13 0.15 0.17 0.19 0.21 0.23 0.26 0.30 0.35 0.41 0.48 0.56 0.66 0.78 0.89 0.99 1.09
0.03 0.05 0.07 0.08 0.10 0.10 0.12 0.14 0.17 0.22 0.21 0.09 0.06 0.09 0.10 0.09 0.10 0.12 0.11 0.11 0.10 0.11 0.15 0.18 0.20 0.23 0.25 0.27 0.29 0.31 0.35 0.40 0.46 0.55 0.65 0.75 0.83 0.89
0.01 0.03 0.05 0.07 0.08 0.09 0.11 0.12 0.14 0.17 0.25 0.21 0.11 0.12 0.12 0.14 0.17 0.18 0.16 0.15 0.13 0.12 0.16 0.20 0.23 0.26 0.27 0.29 0.32 0.36 0.39 0.41 0.43 0.46 0.52 0.60 0.69 0.77
0.00 0.01 0.03 0.05 0.06 0.06 0.07 0.10 0.13 0.18 0.26 0.29 0.20 0.16 0.15 0.15 0.18 0.19 0.18 0.16 0.15 0.16 0.20 0.22 0.24 0.27 0.30 0.33 0.37 0.40 0.43 0.45 0.47 0.49 0.50 0.54 0.61 0.70
0.00 0.01 0.01 0.02 0.02 0.03 0.06 0.10 0.16 0.21 0.24 0.30 0.30 0.23 0.21 0.19 0.21 0.18 0.16 0.15 0.16 0.17 0.21 0.25 0.29 0.33 0.35 0.38 0.41 0.43 0.46 0.49 0.54 0.58 0.61 0.63 0.66 0.70
0.00 0.00 0.00 0.01 0.01 0.04 0.09 0.14 0.21 0.29 0.38 0.44 0.42 0.36 0.31 0.25 0.21 0.22 0.27 0.27 0.26 0.23 0.24 0.27 0.32 0.37 0.40 0.42 0.45 0.46 0.48 0.52 0.58 0.65 0.71 0.73 0.75 0.76
0.00 0.00 0.00 0.00 0.01 0.05 0.09 0.19 0.33 0.47 0.56 0.59 0.56 0.48 0.37 0.32 0.32 0.37 0.45 0.52 0.46 0.29 0.32 0.35 0.36 0.43 0.43 0.45 0.51 0.54 0.55 0.57 0.60 0.64 0.67 0.69 0.70 0.73
0.00 0.00 0.01 0.01 0.02 0.03 0.07 0.18 0.29 0.39 0.46 0.49 0.48 0.38 0.35 0.34 0.46 0.59 0.61 0.65 0.54 0.37 0.43 0.48 0.41 0.43 0.44 0.48 0.57 0.57 0.54 0.54 0.55 0.57 0.57 0.56 0.55 0.57
0.00 0.01 0.01 0.01 0.02 0.07 0.15 0.23 0.19 0.17 0.21 0.27 0.31 0.33 0.36 0.43 0.57 0.76 0.82 0.84 0.69 0.53 0.50 0.55 0.41 0.38 0.40 0.44 0.51 0.50 0.46 0.46 0.48 0.51 0.51 0.49 0.47 0.47
0.00 0.01 0.03 0.03 0.05 0.17 0.29 0.32 0.21 0.13 0.15 0.23 0.32 0.35 0.36 0.38 0.46 0.73 0.91 0.95 0.80 0.55 0.47 0.55 0.51 0.47 0.45 0.42 0.44 0.48 0.46 0.44 0.44 0.46 0.47 0.46 0.45 0.47
0.02 0.02 0.03 0.06 0.12 0.24 0.29 0.31 0.25 0.17 0.21 0.24 0.26 0.27 0.26 0.30 0.39 0.58 0.99 1.29 1.07 0.75 0.50 0.58 0.60 0.62 0.70 0.47 0.42 0.45 0.45 0.43 0.42 0.43 0.45 0.46 0.47 0.47
0.06 0.03 0.03 0.10 0.19 0.23 0.21 0.19 0.25 0.32 0.28 0.26 0.28 0.30 0.31 0.33 0.37 0.48 0.78 1.33 1.49 1.09 0.68 0.87 0.89 0.73 0.79 0.61 0.47 0.46 0.48 0.52 0.53 0.51 0.48 0.47 0.46 0.47
0.07 0.04 0.06 0.13 0.15 0.12 0.10 0.16 0.28 0.29 0.23 0.31 0.37 0.38 0.38 0.41 0.46 0.54 0.62 0.79 1.03 1.10 0.84 0.96 1.05 0.81 0.79 0.62 0.47 0.47 0.53 0.65 0.72 0.68 0.60 0.54 0.49 0.48
0.07 0.10 0.11 0.09 0.07 0.06 0.09 0.15 0.16 0.15 0.26 0.46 0.53 0.53 0.55 0.61 0.65 0.67 0.64 0.64 0.67 0.70 0.72 0.75 0.85 0.78 0.75 0.69 0.57 0.56 0.68 0.73 0.85 0.89 0.78 0.61 0.51 0.47
0.09 0.08 0.06 0.04 0.04 0.06 0.10 0.10 0.09 0.16 0.38 0.56 0.61 0.59 0.61 0.67 0.73 0.80 0.86 0.81 0.78 0.69 0.61 0.58 0.63 0.72 0.68 0.56 0.64 0.69 0.82 1.04 1.16 1.17 0.91 0.69 0.57 0.50
0.11 0.04 0.02 0.03 0.04 0.06 0.09 0.10 0.11 0.19 0.31 0.41 0.53 0.59 0.59 0.65 0.74 0.84 0.91 0.88 0.79 0.67 0.55 0.46 0.42 0.45 0.50 0.51 0.54 0.62 0.79 0.97 1.15 1.17 0.91 0.78 0.73 0.62
0.08 0.04 0.05 0.07 0.10 0.13 0.15 0.15 0.16 0.23 0.36 0.50 0.59 0.67 0.75 0.82 0.89 0.90 0.88 0.81 0.68 0.54 0.44 0.35 0.30 0.27 0.26 0.29 0.49 0.70 0.76 0.91 1.06 0.98 0.67 0.62 0.78 0.73
0.08 0.09 0.13 0.16 0.19 0.20 0.23 0.26 0.30 0.35 0.52 0.68 0.77 0.83 0.91 0.95 0.95 0.88 0.75 0.60 0.45 0.32 0.23 0.18 0.20 0.26 0.25 0.23 0.26 0.55 0.84 0.86 0.78 0.73 0.60 0.55 0.73 0.75
0.12 0.18 0.23 0.26 0.26 0.27 0.31 0.39 0.47 0.52 0.63 0.76 0.84 0.92 1.02 1.05 0.92 0.74 0.56 0.41 0.28 0.15 0.09 0.05 0.09 0.22 0.36 0.42 0.40 0.52 0.67 0.78 0.69 0.64 0.57 0.52 0.61 0.61
0.13 0.20 0.24 0.27 0.28 0.31 0.37 0.46 0.60 0.72 0.80 0.90 0.95 1.03 1.06 0.95 0.72 0.49 0.30 0.16 0.12 0.09 0.08 0.05 0.07 0.15 0.23 0.20 0.24 0.37 0.54 0.66 0.66 0.62 0.45 0.34 0.35 0.38
0.09 0.15 0.19 0.23 0.28 0.36 0.44 0.56 0.72 0.81 0.89 0.96 1.02 1.03 0.89 0.69 0.49 0.27 0.16 0.12 0.10 0.10 0.08 0.05 0.03 0.05 0.07 0.12 0.19 0.28 0.39 0.41 0.38 0.34 0.38 0.39 0.44 0.65
0.08 0.13 0.17 0.23 0.31 0.42 0.54 0.62 0.73 0.84 0.95 1.02 0.98 0.84 0.63 0.41 0.23 0.16 0.13 0.12 0.11 0.08 0.05 0.03 0.03 0.04 0.07 0.11 0.15 0.20 0.25 0.26 0.22 0.26 0.48 0.51 0.56 0.69

GEFSNE_prec_meanprecacc_054.txt.gz
Total_Precipitation_Accumulation
0.08 0.10 0.12 0.13 0.15 0.17 0.20 0.24 0.27 0.21 0.11 0.06 0.05 0.04 0.05 0.06 0.06 0.08 0.08 0.07 0.10 0.13 0.15 0.17 0.20 0.24 0.28 0.34 0.42 0.52 0.61 0.71 0.82 0.93 1.04 1.13 1.19 1.21
0.05 0.07 0.09 0.10 0.11 0.14 0.16 0.19 0.23 0.26 0.17 0.06 0.05 0.05 0.07 0.07 0.07 0.10 0.09 0.11 0.13 0.13 0.15 0.17 0.20 0.22 0.24 0.27 0.32 0.37 0.44 0.52 0.60 0.71 0.84 0.96 1.07 1.17
0.03 0.05 0.07 0.08 0.10 0.10 0.12 0.14 0.17 0.22 0.21 0.09 0.06 0.09 0.10 0.09 0.10 0.12 0.11 0.11 0.10 0.11 0.15 0.18 0.20 0.23 0.26 0.28 0.30 0.33 0.37 0.42 0.50 0.59 0.70 0.81 0.90 0.97
0.01 0.03 0.05 0.07 0.08 0.09 0.11 0.12 0.14 0.17 0.25 0.21 0.11 0.12 0.12 0.14 0.17 0.18 0.16 0.15 0.13 0.12 0.16 0.20 0.23 0.26 0.28 0.30 0.33 0.37 0.40 0.43 0.45 0.49 0.56 0.64 0.73 0.82
0.00 0.01 0.03 0.05 0.06 0.06 0.07 0.10 0.13 0.18 0.26 0.30 0.20 0.17 0.15 0.15 0.18 0.19 0.18 0.16 0.15 0.16 0.20 0.22 0.24 0.27 0.30 0.34 0.37 0.41 0.43 0.46 0.49 0.50 0.52 0.56 0.63 0.73
0.00 0.01 0.01 0.02 0.02 0.03 0.06 0.10 0.16 0.21 0.25 0.31 0.30 0.23 0.22 0.19 0.21 0.18 0.16 0.15 0.16 0.17 0.21 0.25 0.29 0.33 0.35 0.38 0.41 0.43 0.46 0.49 0.54 0.59 0.62 0.65 0.68 0.72
0.00 0.00 0.00 0.01 0.01 0.04 0.09 0.14 0.21 0.29 0.38 0.45 0.43 0.37 0.31 0.26 0.22 0.22 0.27 0.27 0.26 0.23 0.24 0.27 0.32 0.37 0.40 0.42 0.45 0.46 0.48 0.52 0.58 0.66 0.72 0.75 0.77 0.79
0.00 0.00 0.00 0.00 0.01 0.05 0.09 0.19 0.33 0.47 0.58 0.61 0.58 0.50 0.37 0.32 0.32 0.37 0.45 0.53 0.47 0.29 0.32 0.35 0.36 0.43 0.43 0.45 0.51 0.54 0.55 0.57 0.61 0.65 0.68 0.71 0.72 0.75
0.00 0.00 0.01 0.01 0.02 0.03 0.07 0.18 0.29 0.40 0.47 0.51 0.49 0.39 0.35 0.34 0.47 0.60 0.63 0.67 0.55 0.37 0.43 0.48 0.41 0.43 0.44 0.48 0.57 0.57 0.54 0.54 0.55 0.57 0.58 0.58 0.57 0.59
0.00 0.01 0.01 0.01 0.02 0.07 0.15 0.24 0.20 0.17 0.22 0.27 0.31 0.33 0.37 0.43 0.58 0.78 0.85 0.86 0.70 0.53 0.50 0.55 0.41 0.38 0.40 0.44 0.51 0.50 0.46 0.46 0.48 0.51 0.51 0.50 0.48 0.49
0.00 0.01 0.03 0.03 0.05 0.18 0.30 0.33 0.22 0.13 0.15 0.23 0.32 0.35 0.36 0.39 0.47 0.73 0.92 0.97 0.82 0.55 0.47 0.55 0.51 0.47 0.45 0.42 0.44 0.48 0.46 0.44 0.44 0.46 0.47 0.47 0.47 0.49
0.02 0.02 0.03 0.06 0.13 0.25 0.30 0.32 0.26 0.18 0.21 0.24 0.26 0.27 0.26 0.30 0.39 0.58 0.99 1.33 1.11 0.77 0.50 0.59 0.61 0.64 0.72 0.48 0.42 0.45 0.45 0.43 0.42 0.43 0.45 0.46 0.48 0.49
0.06 0.03 0.03 0.10 0.19 0.23 0.22 0.19 0.25 0.32 0.29 0.26 0.28 0.30 0.31 0.33 0.37 0.48 0.79 1.37 1.55 1.13 0.68 0.91 0.94 0.75 0.83 0.62 0.47 0.46 0.48 0.52 0.53 0.51 0.48 0.48 0.47 0.50
0.07 0.04 0.06 0.14 0.15 0.12 0.10 0.16 0.28 0.29 0.23 0.31 0.37 0.38 0.38 0.41 0.46 0.54 0.63 0.80 1.05 1.13 0.85 1.00 1.13 0.86 0.85 0.65 0.48 0.47 0.53 0.65 0.72 0.68 0.60 0.55 0.50 0.50
0.07 0.10 0.11 0.10 0.07 0.06 0.09 0.15 0.16 0.15 0.26 0.46 0.53 0.53 0.55 0.61 0.65 0.68 0.64 0.64 0.68 0.70 0.72 0.76 0.89 0.83 0.82 0.75 0.59 0.57 0.68 0.73 0.85 0.89 0.78 0.61 0.52 0.49
0.09 0.09 0.06 0.04 0.04 0.06 0.10 0.10 0.09 0.16 0.38 0.56 0.61 0.60 0.62 0.67 0.73 0.81 0.87 0.82 0.79 0.69 0.61 0.58 0.64 0.77 0.75 0.60 0.67 0.71 0.83 1.04 1.16 1.17 0.92 0.70 0.58 0.51
0.11 0.04 0.02 0.03 0.04 0.06 0.09 0.10 0.11 0.19 0.31 0.41 0.54 0.60 0.60 0.65 0.74 0.84 0.93 0.90 0.81 0.68 0.56 0.46 0.43 0.46 0.53 0.55 0.57 0.63 0.80 0.98 1.16 1.18 0.93 0.80 0.74 0.64
0.09 0.04 0.05 0.07 0.10 0.13 0.15 0.15 0.16 0.23 0.37 0.52 0.60 0.69 0.77 0.83 0.90 0.91 0.89 0.82 0.70 0.55 0.44 0.36 0.31 0.29 0.27 0.29 0.49 0.71 0.78 0.92 1.06 0.98 0.69 0.66 0.81 0.75
0.08 0.09 0.13 0.16 0.19 0.20 0.23 0.26 0.30 0.35 0.53 0.70 0.79 0.85 0.93 0.97 0.96 0.89 0.76 0.61 0.46 0.33 0.24 0.19 0.22 0.32 0.31 0.24 0.27 0.55 0.87 0.90 0.80 0.74 0.62 0.60 0.79 0.80
0.12 0.18 0.23 0.26 0.26 0.27 0.32 0.40 0.48 0.53 0.64 0.78 0.86 0.94 1.05 1.08 0.94 0.76 0.58 0.43 0.30 0.17 0.09 0.06 0.10 0.27 0.46 0.49 0.44 0.53 0.68 0.83 0.79 0.72 0.60 0.54 0.64 0.64
0.13 0.20 0.24 0.27 0.29 0.32 0.38 0.48 0.62 0.74 0.82 0.93 0.98 1.06 1.09 0.99 0.75 0.51 0.32 0.18 0.14 0.12 0.09 0.06 0.07 0.16 0.27 0.25 0.27 0.38 0.54 0.67 0.73 0.75 0.59 0.45 0.42 0.42
0.09 0.15 0.19 0.23 0.29 0.37 0.46 0.58 0.74 0.83 0.92 0.98 1.05 1.06 0.92 0.73 0.52 0.30 0.18 0.15 0.12 0.12 0.10 0.06 0.04 0.05 0.09 0.16 0.23 0.30 0.39 0.41 0.39 0.37 0.46 0.56 0.66 0.87
0.08 0.13 0.17 0.23 0.33 0.44 0.55 0.63 0.75 0.86 0.98 1.05 1.02 0.87 0.66 0.45 0.26 0.19 0.16 0.15 0.13 0.10 0.07 0.05 0.03 0.04 0.08 0.13 0.18 0.23 0.26 0.27 0.23 0.27 0.49 0.55 0.66 0.83

GEFSNE_prec_meanprecacc_060.txt.gz
Total_Precipitation_Accumulation
0.08 0.10 0.12 0.13 0.15 0.17 0.20 0.24 0.27 0.21 0.11 0.06 0.05 0.04 0.05 0.06 0.06 0.08 0.08 0.07 0.10 0.13 0.15 0.17 0.21 0.25 0.29 0.35 0.44 0.54 0.64 0.75 0.86 0.97 1.09 1.18 1.25 1.27
0.05 0.07 0.09 0.10 0.11 0.14 0.16 0.19 0.23 0.26 0.17 0.06 0.05 0.05 0.07 0.07 0.07 0.10 0.09 0.11 0.13 0.13 0.15 0.17 0.20 0.22 0.25 0.28 0.33 0.39 0.47 0.55 0.64 0.76 0.89 1.02 1.13 1.24
0.03 0.05 0.07 0.08 0.10 0.10 0.12 0.14 0.17 0.22 0.21 0.09 0.06 0.09 0.10 0.09 0.10 0.12 0.11 0.11 0.10 0.11 0.15 0.18 0.20 0.24 0.27 0.29 0.31 0.35 0.39 0.45 0.53 0.63 0.74 0.85 0.94 1.01
0.01 0.03 0.05 0.07 0.08 0.09 0.11 0.12 0.14 0.17 0.25 0.21 0.11 0.12 0.12 0.14 0.17 0.18 0.16 0.15 0.13 0.12 0.16 0.20 0.23 0.26 0.28 0.30 0.34 0.39 0.42 0.45 0.47 0.51 0.58 0.66 0.76 0.85
0.00 0.01 0.03 0.05 0.06 0.06 0.07 0.10 0.13 0.18 0.26 0.30 0.20 0.17 0.15 0.15 0.18 0.19 0.18 0.16 0.15 0.16 0.20 0.22 0.24 0.27 0.30 0.34 0.38 0.41 0.44 0.47 0.49 0.51 0.53 0.58 0.65 0.75
0.00 0.01 0.01 0.02 0.02 0.03 0.06 0.10 0.16 0.21 0.25 0.31 0.30 0.23 0.22 0.19 0.21 0.18 0.16 0.15 0.16 0.17 0.21 0.25 0.29 0.33 0.35 0.38 0.41 0.43 0.46 0.49 0.55 0.60 0.64 0.67 0.70 0.75
0.00 0.00 0.00 0.01 0.01 0.04 0.09 0.14 0.21 0.29 0.38 0.45 0.44 0.37 0.31 0.26 0.22 0.22 0.27 0.27 0.26 0.23 0.24 0.27 0.32 0.37 0.40 0.42 0.45 0.46 0.48 0.52 0.59 0.68 0.74 0.77 0.79 0.81
0.00 0.00 0.00 0.00 0.01 0.05 0.09 0.19 0.34 0.47 0.58 0.62 0.59 0.50 0.37 0.32 0.32 0.37 0.46 0.54 0.48 0.29 0.32 0.35 0.36 0.43 0.43 0.45 0.51 0.54 0.55 0.58 0.61 0.66 0.70 0.72 0.74 0.78
0.00 0.00 0.01 0.01 0.02 0.03 0.07 0.18 0.29 0.40 0.48 0.51 0.50 0.39 0.35 0.34 0.47 0.61 0.64 0.69 0.56 0.37 0.43 0.49 0.41 0.43 0.44 0.48 0.57 0.57 0.54 0.54 0.56 0.58 0.59 0.59 0.59 0.61
0.00 0.01 0.01 0.01 0.02 0.07 0.15 0.24 0.20 0.17 0.22 0.27 0.31 0.33 0.37 0.43 0.59 0.81 0.88 0.88 0.70 0.53 0.50 0.55 0.41 0.38 0.40 0.44 0.51 0.50 0.46 0.46 0.49 0.52 0.52 0.51 0.49 0.51
0.00 0.01 0.03 0.03 0.05 0.18 0.30 0.33 0.22 0.13 0.15 0.23 0.32 0.35 0.37 0.39 0.47 0.74 0.92 0.98 0.83 0.55 0.47 0.55 0.51 0.47 0.45 0.42 0.44 0.48 0.46 0.44 0.44 0.46 0.47 0.47 0.47 0.50
0.02 0.02 0.03 0.06 0.13 0.25 0.30 0.32 0.26 0.18 0.21 0.24 0.26 0.27 0.26 0.30 0.39 0.58 1.00 1.37 1.15 0.79 0.50 0.60 0.62 0.65 0.74 0.48 0.42 0.45 0.45 0.43 0.42 0.43 0.45 0.47 0.48 0.49
0.06 0.03 0.03 0.10 0.20 0.24 0.23 0.20 0.25 0.33 0.29 0.26 0.28 0.30 0.31 0.33 0.37 0.48 0.79 1.40 1.61 1.17 0.69 0.94 1.00 0.77 0.86 0.64 0.47 0.46 0.48 0.52 0.53 0.51 0.48 0.48 0.47 0.50
0.07 0.04 0.06 0.14 0.15 0.12 0.11 0.16 0.28 0.29 0.23 0.31 0.37 0.38 0.38 0.41 0.46 0.54 0.63 0.80 1.07 1.15 0.86 1.04 1.21 0.90 0.90 0.68 0.48 0.47 0.53 0.65 0.72 0.68 0.60 0.55 0.50 0.51
0.07 0.10 0.11 0.10 0.07 0.06 0.09 0.15 0.16 0.15 0.26 0.46 0.53 0.53 0.55 0.61 0.65 0.68 0.64 0.64 0.68 0.70 0.72 0.76 0.92 0.87 0.88 0.79 0.61 0.57 0.68 0.73 0.85 0.89 0.78 0.61 0.52 0.49
0.09 0.09 0.06 0.04 0.04 0.06 0.10 0.10 0.09 0.16 0.38 0.56 0.61 0.60 0.62 0.67 0.73 0.81 0.88 0.83 0.80 0.69 0.61 0.58 0.64 0.79 0.80 0.63 0.70 0.72 0.83 1.05 1.16 1.17 0.92 0.70 0.58 0.52
0.11 0.04 0.02 0.03 0.04 0.06 0.09 0.10 0.11 0.19 0.31 0.41 0.55 0.60 0.60 0.65 0.74 0.84 0.93 0.91 0.83 0.69 0.56 0.46 0.43 0.46 0.55 0.57 0.60 0.64 0.80 0.98 1.16 1.18 0.94 0.81 0.74 0.64
0.09 0.04 0.05 0.07 0.10 0.13 0.15 0.15 0.16 0.23 0.37 0.52 0.61 0.70 0.78 0.84 0.90 0.91 0.89 0.83 0.72 0.56 0.45 0.36 0.32 0.30 0.28 0.29 0.49 0.71 0.78 0.93 1.06 0.98 0.70 0.69 0.82 0.75
0.08 0.09 0.13 0.16 0.19 0.20 0.23 0.27 0.31 0.35 0.54 0.71 0.80 0.87 0.95 0.98 0.97 0.89 0.77 0.62 0.47 0.33 0.24 0.19 0.23 0.38 0.36 0.26 0.27 0.55 0.88 0.93 0.82 0.76 0.63 0.61 0.81 0.80
0.12 0.18 0.23 0.26 0.26 0.27 0.32 0.41 0.49 0.54 0.65 0.79 0.87 0.95 1.07 1.10 0.96 0.77 0.59 0.45 0.32 0.19 0.10 0.06 0.11 0.33 0.56 0.57 0.47 0.53 0.68 0.86 0.86 0.79 0.62 0.55 0.64 0.64
0.13 0.20 0.24 0.27 0.29 0.33 0.38 0.48 0.62 0.75 0.83 0.94 0.99 1.07 1.11 1.02 0.78 0.53 0.34 0.19 0.16 0.14 0.11 0.06 0.07 0.18 0.32 0.32 0.31 0.38 0.54 0.68 0.77 0.86 0.71 0.54 0.47 0.43
0.09 0.15 0.19 0.23 0.30 0.38 0.47 0.59 0.75 0.84 0.93 1.00 1.06 1.07 0.95 0.77 0.56 0.32 0.21 0.18 0.15 0.14 0.12 0.07 0.04 0.06 0.12 0.22 0.28 0.31 0.39 0.41 0.39 0.38 0.52 0.68 0.83 1.00
0.08 0.13 0.18 0.24 0.33 0.45 0.56 0.64 0.76 0.87 0.99 1.07 1.04 0.89 0.69 0.47 0.28 0.22 0.19 0.18 0.17 0.13 0.09 0.06 0.03 0.04 0.09 0.17 0.23 0.26 0.28 0.28 0.24 0.28 0.49 0.56 0.70 0.90

GEFSNE_prec_meanprecacc_066.txt.gz
Total_Precipitation_Accumulation
0.10 0.12 0.14 0.14 0.16 0.18 0.20 0.24 0.27 0.21 0.11 0.06 0.05 0.04 0.05 0.06 0.06 0.08 0.08 0.07 0.10 0.13 0.15 0.17 0.21 0.25 0.30 0.36 0.45 0.56 0.66 0.77 0.88 1.00 1.11 1.21 1.29 1.32
0.08 0.09 0.10 0.11 0.12 0.14 0.16 0.19 0.23 0.26 0.17 0.06 0.05 0.05 0.07 0.07 0.07 0.10 0.09 0.11 0.13 0.13 0.15 0.18 0.20 0.23 0.26 0.30 0.34 0.41 0.48 0.57 0.66 0.79 0.93 1.06 1.18 1.29
0.08 0.09 0.09 0.10 0.11 0.11 0.12 0.14 0.17 0.22 0.21 0.09 0.06 0.09 0.10 0.09 0.10 0.12 0.11 0.11 0.10 0.11 0.15 0.18 0.21 0.24 0.27 0.30 0.33 0.36 0.41 0.47 0.56 0.66 0.77 0.88 0.98 1.05
0.07 0.07 0.08 0.09 0.10 0.11 0.11 0.12 0.14 0.18 0.25 0.21 0.11 0.12 0.12 0.14 0.17 0.18 0.16 0.15 0.13 0.12 0.16 0.20 0.24 0.26 0.28 0.31 0.35 0.40 0.43 0.46 0.49 0.53 0.60 0.68 0.78 0.87
0.04 0.05 0.06 0.07 0.08 0.08 0.08 0.10 0.13 0.18 0.26 0.30 0.20 0.17 0.15 0.15 0.18 0.19 0.18 0.16 0.15 0.16 0.20 0.22 0.24 0.27 0.31 0.35 0.39 0.42 0.45 0.48 0.50 0.52 0.54 0.59 0.67 0.77
0.06 0.06 0.05 0.04 0.04 0.04 0.07 0.10 0.16 0.21 0.25 0.31 0.30 0.23 0.22 0.19 0.21 0.18 0.16 0.15 0.16 0.17 0.21 0.25 0.29 0.33 0.35 0.38 0.41 0.44 0.46 0.50 0.55 0.60 0.65 0.68 0.72 0.77
0.05 0.04 0.02 0.02 0.02 0.04 0.09 0.14 0.21 0.29 0.38 0.46 0.44 0.37 0.31 0.26 0.22 0.22 0.27 0.27 0.26 0.23 0.24 0.27 0.32 0.37 0.40 0.42 0.45 0.46 0.48 0.52 0.60 0.69 0.75 0.79 0.81 0.83
0.04 0.03 0.02 0.02 0.02 0.05 0.09 0.19 0.34 0.47 0.58 0.62 0.59 0.50 0.37 0.32 0.32 0.37 0.46 0.54 0.48 0.29 0.32 0.35 0.36 0.43 0.43 0.45 0.51 0.54 0.55 0.58 0.62 0.67 0.71 0.74 0.76 0.79
0.03 0.02 0.02 0.01 0.02 0.03 0.07 0.18 0.29 0.40 0.48 0.51 0.50 0.39 0.35 0.35 0.47 0.63 0.66 0.70 0.57 0.37 0.43 0.49 0.41 0.43 0.44 0.48 0.57 0.57 0.54 0.54 0.56 0.59 0.60 0.60 0.60 0.62
0.02 0.02 0.02 0.02 0.02 0.07 0.15 0.24 0.20 0.17 0.22 0.27 0.31 0.33 0.37 0.43 0.60 0.83 0.90 0.89 0.71 0.53 0.50 0.55 0.41 0.38 0.40 0.44 0.51 0.50 0.46 0.46 0.49 0.52 0.52 0.51 0.50 0.52
0.01 0.01 0.03 0.03 0.05 0.18 0.30 0.33 0.22 0.13 0.15 0.23 0.32 0.36 0.37 0.40 0.47 0.74 0.93 0.99 0.84 0.55 0.47 0.55 0.51 0.47 0.45 0.42 0.44 0.48 0.46 0.44 0.44 0.46 0.48 0.48 0.48 0.51
0.02 0.02 0.03 0.06 0.13 0.25 0.30 0.32 0.26 0.18 0.21 0.24 0.26 0.27 0.26 0.30 0.39 0.58 1.00 1.39 1.17 0.81 0.50 0.60 0.62 0.65 0.75 0.48 0.42 0.45 0.45 0.43 0.42 0.43 0.45 0.47 0.49 0.50
0.06 0.03 0.03 0.10 0.20 0.24 0.23 0.20 0.25 0.33 0.29 0.26 0.28 0.30 0.31 0.33 0.37 0.48 0.79 1.42 1.65 1.19 0.69 0.97 1.03 0.79 0.89 0.65 0.47 0.46 0.48 0.52 0.53 0.51 0.48 0.48 0.47 0.51
0.07 0.04 0.06 0.14 0.15 0.13 0.11 0.16 0.28 0.29 0.23 0.31 0.37 0.38 0.38 0.41 0.46 0.54 0.63 0.80 1.08 1.17 0.86 1.07 1.28 0.94 0.94 0.71 0.48 0.47 0.53 0.65 0.72 0.68 0.60 0.55 0.50 0.51
0.07 0.10 0.12 0.10 0.07 0.06 0.09 0.15 0.16 0.15 0.26 0.46 0.53 0.53 0.55 0.61 0.66 0.68 0.65 0.65 0.68 0.70 0.72 0.77 0.94 0.91 0.93 0.84 0.63 0.58 0.68 0.73 0.85 0.89 0.78 0.61 0.52 0.49
0.09 0.09 0.06 0.04 0.04 0.06 0.10 0.10 0.09 0.16 0.38 0.57 0.62 0.60 0.62 0.67 0.73 0.81 0.88 0.83 0.81 0.69 0.61 0.58 0.64 0.81 0.84 0.66 0.72 0.74 0.83 1.05 1.16 1.17 0.92 0.70 0.58 0.52
0.11 0.04 0.02 0.03 0.04 0.06 0.09 0.10 0.11 0.19 0.31 0.42 0.55 0.61 0.60 0.66 0.74 0.84 0.93 0.92 0.84 0.69 0.56 0.46 0.43 0.47 0.56 0.60 0.62 0.64 0.80 0.98 1.16 1.18 0.94 0.82 0.74 0.64
0.09 0.04 0.05 0.07 0.10 0.13 0.15 0.15 0.16 0.23 0.37 0.53 0.62 0.70 0.79 0.85 0.91 0.91 0.90 0.85 0.73 0.57 0.45 0.36 0.32 0.31 0.29 0.30 0.50 0.71 0.78 0.93 1.06 0.98 0.71 0.71 0.83 0.75
0.08 0.09 0.13 0.16 0.19 0.20 0.23 0.27 0.31 0.36 0.54 0.72 0.81 0.88 0.96 1.00 0.98 0.90 0.77 0.63 0.48 0.34 0.24 0.19 0.26 0.44 0.42 0.28 0.27 0.55 0.90 0.96 0.84 0.76 0.63 0.62 0.82 0.80
0.12 0.18 0.23 0.26 0.26 0.28 0.32 0.41 0.49 0.54 0.65 0.79 0.88 0.96 1.08 1.12 0.97 0.78 0.60 0.46 0.34 0.20 0.11 0.06 0.13 0.40 0.69 0.65 0.51 0.53 0.69 0.91 0.94 0.84 0.64 0.56 0.65 0.64
0.13 0.20 0.24 0.27 0.30 0.33 0.39 0.49 0.63 0.76 0.84 0.95 1.00 1.08 1.12 1.04 0.80 0.54 0.35 0.21 0.18 0.16 0.13 0.07 0.08 0.20 0.40 0.41 0.36 0.39 0.54 0.69 0.84 1.00 0.82 0.62 0.50 0.44
0.09 0.15 0.19 0.23 0.31 0.39 0.47 0.59 0.75 0.85 0.93 1.01 1.07 1.09 0.96 0.79 0.58 0.35 0.23 0.20 0.17 0.16 0.14 0.07 0.04 0.07 0.17 0.32 0.34 0.33 0.40 0.41 0.39 0.41 0.59 0.80 0.98 1.08
0.08 0.14 0.18 0.24 0.34 0.46 0.57 0.65 0.76 0.88 1.00 1.09 1.05 0.90 0.70 0.49 0.31 0.24 0.22 0.21 0.20 0.15 0.11 0.07 0.04 0.05 0.12 0.22 0.29 0.30 0.30 0.29 0.24 0.28 0.50 0.57 0.73 0.95